Tiempo cada hora Aba-el-Baul

Hoy, 24 Junio, Jueves

Tiempo Temperatura Precipitaciones Viento Presión Humedad
00:00 +35°C° 0 mm 3 mps 747 mmHg 40%
01:00 +34°C° 0 mm 3 mps 746 mmHg 43%
02:00 +34°C° 0 mm 3 mps 746 mmHg 47%
03:00 +32°C° 0 mm 2 mps 746 mmHg 55%
04:00 +32°C° 0 mm 2 mps 747 mmHg 52%
05:00 +33°C° 0 mm 3 mps 747 mmHg 50%
06:00 +33°C° 0 mm 3 mps 747 mmHg 48%
07:00 +36°C° 0 mm 3 mps 747 mmHg 39%
08:00 +40°C° 0 mm 4 mps 748 mmHg 29%
09:00 +43°C° 0 mm 5 mps 748 mmHg 19%
10:00 +45°C° 0 mm 5 mps 747 mmHg 16%
11:00 +47°C° 0 mm 5 mps 747 mmHg 14%
12:00 +48°C° 0 mm 5 mps 747 mmHg 11%
13:00 +48°C° 0 mm 5 mps 746 mmHg 11%
14:00 +48°C° 0 mm 6 mps 746 mmHg 11%
15:00 +49°C° 0 mm 7 mps 746 mmHg 12%
16:00 +46°C° 0 mm 6 mps 746 mmHg 15%
17:00 +43°C° 0 mm 5 mps 746 mmHg 18%
18:00 +41°C° 0 mm 5 mps 746 mmHg 21%
19:00 +40°C° 0 mm 4 mps 746 mmHg 23%
20:00 +37°C° 0 mm 3 mps 747 mmHg 26%
21:00 +36°C° 0 mm 2 mps 747 mmHg 28%
22:00 +35°C° 0 mm 2 mps 747 mmHg 27%
23:00 +34°C° 0 mm 2 mps 746 mmHg 25%

Mañana, 25 Junio, Viernes

Tiempo Temperatura Precipitaciones Viento Presión Humedad
00:00 +33°C° 0 mm 1 mps 746 mmHg 24%
01:00 +34°C° 0 mm 2 mps 746 mmHg 24%
02:00 +32°C° 0 mm 2 mps 745 mmHg 24%
03:00 +33°C° 0 mm 3 mps 745 mmHg 24%
04:00 +32°C° 0 mm 2 mps 746 mmHg 24%
05:00 +32°C° 0 mm 2 mps 746 mmHg 24%
06:00 +32°C° 0 mm 1 mps 746 mmHg 24%
07:00 +35°C° 0 mm 1 mps 747 mmHg 20%
08:00 +37°C° 0 mm 1 mps 747 mmHg 16%
09:00 +41°C° 0 mm 1 mps 747 mmHg 12%
10:00 +43°C° 0 mm 1 mps 746 mmHg 11%
11:00 +44°C° 0 mm 1 mps 746 mmHg 9%
12:00 +47°C° 0 mm 2 mps 746 mmHg 8%
13:00 +47°C° 0 mm 2 mps 745 mmHg 8%
14:00 +47°C° 0 mm 1 mps 745 mmHg 8%
15:00 +47°C° 0 mm 1 mps 744 mmHg 7%
16:00 +46°C° 0 mm 2 mps 744 mmHg 11%
17:00 +43°C° 0 mm 2 mps 744 mmHg 14%
18:00 +42°C° 0 mm 3 mps 744 mmHg 17%
19:00 +40°C° 0 mm 2 mps 745 mmHg 20%
20:00 +39°C° 0 mm 2 mps 745 mmHg 22%
21:00 +37°C° 0 mm 2 mps 745 mmHg 25%
22:00 +37°C° 0 mm 2 mps 745 mmHg 25%
23:00 +36°C° 0 mm 2 mps 745 mmHg 24%

Pasado mañana, 26 Junio, Sábado

Tiempo Temperatura Precipitaciones Viento Presión Humedad
00:00 +36°C° 0 mm 2 mps 745 mmHg 24%
01:00 +34°C° 0 mm 1 mps 745 mmHg 25%
02:00 +33°C° 0 mm 1 mps 744 mmHg 26%
03:00 +33°C° 0 mm 1 mps 744 mmHg 27%
04:00 +34°C° 0 mm 2 mps 745 mmHg 29%
05:00 +34°C° 0 mm 2 mps 745 mmHg 31%
06:00 +35°C° 0 mm 3 mps 745 mmHg 34%
07:00 +38°C° 0 mm 3 mps 746 mmHg 27%
08:00 +40°C° 0 mm 3 mps 746 mmHg 20%
09:00 +44°C° 0 mm 4 mps 746 mmHg 13%
10:00 +45°C° 0 mm 3 mps 746 mmHg 11%
11:00 +47°C° 0 mm 3 mps 745 mmHg 9%
12:00 +48°C° 0 mm 2 mps 745 mmHg 7%
13:00 +49°C° 0 mm 2 mps 745 mmHg 6%
14:00 +49°C° 0 mm 2 mps 744 mmHg 6%
15:00 +50°C° 0 mm 3 mps 744 mmHg 6%
16:00 +47°C° 0 mm 3 mps 744 mmHg 9%
17:00 +45°C° 0 mm 3 mps 744 mmHg 12%
18:00 +44°C° 0 mm 3 mps 744 mmHg 15%
19:00 +42°C° 0 mm 3 mps 744 mmHg 21%
20:00 +39°C° 0 mm 3 mps 744 mmHg 27%
21:00 +37°C° 0 mm 3 mps 745 mmHg 34%
22:00 +37°C° 0 mm 3 mps 745 mmHg 34%
23:00 +36°C° 0 mm 3 mps 745 mmHg 34%

27 Junio, Domingo

Tiempo Temperatura Precipitaciones Viento Presión Humedad
00:00 +36°C° 0 mm 3 mps 744 mmHg 35%
01:00 +35°C° 0 mm 3 mps 745 mmHg 39%
02:00 +34°C° 0 mm 2 mps 745 mmHg 43%
03:00 +34°C° 0 mm 2 mps 745 mmHg 47%
04:00 +34°C° 0 mm 2 mps 746 mmHg 47%
05:00 +34°C° 0 mm 2 mps 746 mmHg 47%
06:00 +35°C° 0 mm 2 mps 746 mmHg 47%
07:00 +38°C° 0 mm 2 mps 747 mmHg 36%
08:00 +42°C° 0 mm 3 mps 747 mmHg 25%
09:00 +44°C° 0 mm 3 mps 747 mmHg 14%
10:00 +46°C° 0 mm 2 mps 747 mmHg 12%
11:00 +47°C° 0 mm 2 mps 746 mmHg 10%
12:00 +49°C° 0 mm 2 mps 746 mmHg 9%
13:00 +49°C° 0 mm 2 mps 746 mmHg 9%
14:00 +50°C° 0 mm 3 mps 745 mmHg 9%
15:00 +50°C° 0 mm 3 mps 745 mmHg 10%
16:00 +47°C° 0 mm 4 mps 745 mmHg 17%
17:00 +44°C° 0 mm 4 mps 745 mmHg 25%
18:00 +41°C° 0 mm 5 mps 746 mmHg 32%
19:00 +38°C° 0 mm 4 mps 746 mmHg 37%
20:00 +37°C° 0 mm 4 mps 746 mmHg 42%
21:00 +36°C° 0 mm 3 mps 747 mmHg 47%
22:00 +35°C° 0 mm 3 mps 747 mmHg 46%
23:00 +35°C° 0 mm 2 mps 747 mmHg 46%

28 Junio, Lunes

Tiempo Temperatura Precipitaciones Viento Presión Humedad
00:00 +35°C° 0 mm 2 mps 746 mmHg 45%
01:00 +33°C° 0 mm 1 mps 746 mmHg 44%
02:00 +33°C° 0 mm 1 mps 746 mmHg 42%
03:00 +33°C° 0 mm 1 mps 746 mmHg 40%
04:00 +34°C° 0 mm 2 mps 747 mmHg 44%
05:00 +34°C° 0 mm 2 mps 747 mmHg 48%
06:00 +34°C° 0 mm 3 mps 748 mmHg 52%
07:00 +37°C° 0 mm 3 mps 748 mmHg 41%
08:00 +40°C° 0 mm 2 mps 748 mmHg 29%
09:00 +43°C° 0 mm 2 mps 748 mmHg 18%
10:00 +46°C° 0 mm 2 mps 747 mmHg 16%
11:00 +47°C° 0 mm 2 mps 747 mmHg 13%
12:00 +49°C° 0 mm 2 mps 746 mmHg 11%
13:00 +48°C° 0 mm 3 mps 746 mmHg 12%
14:00 +49°C° 0 mm 4 mps 746 mmHg 14%
15:00 +49°C° 0 mm 5 mps 746 mmHg 15%
16:00 +47°C° 0 mm 5 mps 746 mmHg 20%
17:00 +45°C° 0 mm 5 mps 746 mmHg 24%
18:00 +42°C° 0 mm 5 mps 746 mmHg 29%
19:00 +40°C° 0 mm 4 mps 746 mmHg 34%
20:00 +38°C° 0 mm 4 mps 746 mmHg 38%
21:00 +36°C° 0 mm 3 mps 747 mmHg 43%
22:00 +36°C° 0 mm 3 mps 746 mmHg 41%
23:00 +36°C° 0 mm 2 mps 746 mmHg 39%

29 Junio, Martes

Tiempo Temperatura Precipitaciones Viento Presión Humedad
00:00 +35°C° 0 mm 2 mps 746 mmHg 36%
01:00 +34°C° 0 mm 2 mps 746 mmHg 43%
02:00 +34°C° 0 mm 3 mps 746 mmHg 50%
03:00 +33°C° 0 mm 3 mps 746 mmHg 57%
04:00 +33°C° 0 mm 3 mps 746 mmHg 56%
05:00 +33°C° 0 mm 3 mps 746 mmHg 55%
06:00 +34°C° 0 mm 2 mps 747 mmHg 54%
07:00 +37°C° 0 mm 2 mps 747 mmHg 42%
08:00 +40°C° 0 mm 2 mps 747 mmHg 31%
09:00 +44°C° 0 mm 3 mps 747 mmHg 19%
10:00 +45°C° 0 mm 2 mps 747 mmHg 16%
11:00 +47°C° 0 mm 2 mps 747 mmHg 13%
12:00 +48°C° 0 mm 2 mps 746 mmHg 10%
13:00 +49°C° 0 mm 2 mps 746 mmHg 11%
14:00 +50°C° 0 mm 3 mps 746 mmHg 11%
15:00 +50°C° 0 mm 4 mps 745 mmHg 12%
16:00 +48°C° 0 mm 5 mps 745 mmHg 17%
17:00 +45°C° 0 mm 5 mps 745 mmHg 22%
18:00 +42°C° 0 mm 6 mps 745 mmHg 28%
19:00 +41°C° 0 mm 5 mps 746 mmHg 32%
20:00 +38°C° 0 mm 4 mps 746 mmHg 36%
21:00 +37°C° 0 mm 3 mps 746 mmHg 40%
22:00 +36°C° 0 mm 2 mps 746 mmHg 41%
23:00 +36°C° 0 mm 2 mps 745 mmHg 43%
Mostrar más

Necesitamos Su Consentimiento

Meteoprog y nuestros Proveedores de Servicios pueden almacenar y acceder a sus datos personales como cookies, identificadores de dispositivo u otras tecnologías similares de su dispositivo y procesar dichos datos para personalizar contenido y anuncios, además de ofrecer funciones de redes sociales y analizar el tráfico.

  • Almacenar y/o acceder a información en su dispositivo

    Se puede almacenar o acceder a cookies, identificadores de dispositivo u otra información de su dispositivo para los fines anteriormente indicados.

  • Anuncios y contenido personalizados, medición de anuncios y contenido, percepciones del público, y desarrollo de productos

    Los anuncios y el contenido pueden personalizarse en base a su perfil. Se pueden añadir más datos para personalizar mejor los anuncios y contenidos. Se puede medir el rendimiento de los anuncios y contenidos. Se puede obtener la percepción sobre el público que ha visto los anuncios y contenidos. Dichos datos pueden usarse para desarrollar o mejorar la experiencia del usuario, sistemas y software.

Al hacer clic en ‘Estoy De Acuerdo’ usted permitirá el uso de las cookies, identificadores de dispositivo, balizas web u otras tecnologías similares indicadas. Su configuración puede cambiarse desde el navegador de su dispositivo.

Para ciertos fines, los intereses legítimos pueden ser considerados por encima del consentimiento. Puede leer más sobre ello en nuestra Política de Privacidad y Cookies.